Location: Barruelo
(41.2448°N, 3.8231°W)
Time: 18:51:10
(UTC+00:00)

Cosmos 2098 Rocket - Pass Details

Date: 11 December 2025
Orbit: 349 x 865 km, 82.9° (Epoch: 15 January)

Event Time Altitude Azimuth Distance (km) Brightness Sun altitude
Rises 17:29:04 0° 196° (SSW) 2,619 6.9 -8.0°
Reaches altitude 10° 17:31:03 10° 200° (SSW) 1,815 6.1 -8.3°
Maximum altitude 17:35:01 58° 281° (W) 718 3.7 -9.0°
Drops below altitude 10° 17:39:44 10° 0° (N) 2,156 5.6 -9.8°
Sets 17:42:17 0° 4° (N) 3,165 6.4 -10.3°
